Date String (YYYY-MM-DD hh:mm:ss) UTC,Instrument flags,absolute air pressure of the measurement (hPa),sample flow rate (lpm),inlet stack bypass flow (lpm),air temperature of the measurement (°C),ambient temperature measured by the external sensor (°C),aerosol sample conditioner tube jacket temperature (°C),OPC LED temperature (°C),internal box temperature (°C),relative humidity of the measurement (%),span deviation,mass concentration of particles derived from Lorenz-Mie calculation of OPC scattering (μg/m³),mass concentration of particles derived from Lorenz-Mie calculation of OPC scattering (μg/m³),mass concentration of particles derived from Lorenz-Mie calculation of OPC scattering (μg/m³)
DateTimeUTC,F1_M11,P_M11,Q1_M11,Q2_M11,T1_M11,T2_M11,T3_M11,T4_M11,T5_M11,U1_M11,ZSPAN_M11,X0_M11,X2_M11,X1_M11
2024-06-01 02:00:00,SystemResetWarning,0828.8,5.01,000.00,030.5,029.9,000.0,038.8,032.3,026.1,0001.4,0013.84,0007.05,0006.18
2024-06-01 02:01:00,SystemResetWarning,0828.7,5.00,000.00,030.5,030.0,000.0,038.8,032.3,025.8,0001.2,0014.99,0007.39,0006.49
2024-06-01 02:02:00,SystemResetWarning,0828.7,5.00,000.00,030.6,030.0,000.0,038.8,032.4,025.6,0001.8,0015.26,0007.56,0006.64
2024-06-01 02:03:00,SystemResetWarning,0828.8,5.00,000.00,030.6,030.1,000.0,038.8,032.4,025.4,0001.9,0015.54,0007.57,0006.65
2024-06-01 02:04:00,SystemResetWarning,0828.8,4.99,000.00,030.7,030.1,000.0,038.9,032.5,025.0,0001.9,0016.38,0007.62,0006.67
2024-06-01 02:05:00,SystemResetWarning,0828.8,5.00,000.00,030.7,030.2,000.0,038.9,032.5,024.7,0001.9,0017.08,0007.68,0006.71
2024-06-01 02:06:00,SystemResetWarning,0828.9,4.99,000.00,030.7,030.2,000.0,038.9,032.5,024.3,0001.9,0017.46,0007.63,0006.69
2024-06-01 02:07:00,SystemResetWarning,0829.0,5.01,000.00,030.8,030.2,000.0,039.0,032.6,024.1,0002.3,0017.11,0007.46,0006.55
2024-06-01 02:08:00,SystemResetWarning,0828.9,5.01,000.00,030.8,030.3,000.0,039.0,032.6,023.6,0002.5,0017.34,0007.35,0006.41
2024-06-01 02:09:00,SystemResetWarning,0829.0,5.00,000.00,030.8,030.3,000.0,039.0,032.6,024.0,0002.3,0017.82,0007.23,0006.27
2024-06-01 02:10:00,SystemResetWarning,0829.1,5.00,000.00,030.9,030.3,000.0,039.0,032.7,024.4,0002.0,0017.77,0007.10,0006.12
2024-06-01 02:11:00,SystemResetWarning,0829.0,4.99,000.00,030.9,030.4,000.0,039.1,032.7,021.5,0002.3,0017.06,0007.00,0006.00
2024-06-01 02:12:00,SystemResetWarning,0829.0,4.99,000.00,030.9,030.4,000.0,039.1,032.7,017.3,0002.1,0016.28,0006.76,0005.75
2024-06-01 02:13:00,SystemResetWarning,0828.9,5.00,000.00,030.9,030.4,000.0,039.1,032.7,014.0,0000.0,0015.28,0006.40,0005.42
2024-06-01 02:14:00,SystemResetWarning,0829.0,5.01,000.00,031.0,030.4,000.0,039.1,032.8,013.5,0000.0,0014.84,0006.07,0005.08
2024-06-01 02:15:00,SystemResetWarning,0828.9,5.01,000.00,031.0,030.5,000.0,039.2,032.8,013.6,0000.0,0015.62,0005.67,0004.73
2024-06-01 02:16:00,SystemResetWarning,0829.0,5.00,000.00,031.0,030.5,000.0,039.2,032.8,013.5,0000.0,0015.65,0005.28,0004.39
2024-06-01 02:17:00,SystemResetWarning,0828.9,4.99,000.00,031.0,030.5,000.0,039.2,032.8,013.2,0000.0,0014.52,0004.90,0004.07
2024-06-01 02:18:00,SystemResetWarning,0828.9,4.99,000.00,030.9,028.7,000.0,039.3,031.9,013.4,0000.0,0014.26,0004.56,0003.76
2024-06-01 02:19:00,SystemResetWarning,0828.8,5.00,000.00,030.4,026.6,000.0,039.3,031.0,013.8,0000.0,0014.26,0004.19,0003.46
2024-06-01 02:20:00,SystemResetWarning,0828.8,5.01,000.00,030.1,026.7,000.0,039.2,030.8,014.0,0000.0,0013.35,0003.87,0003.17
2024-06-01 02:21:00,SystemResetWarning,0828.8,5.01,000.00,030.0,027.1,000.0,039.0,031.0,014.0,0000.0,0012.93,0003.58,0002.73
2024-06-01 02:22:00,SystemResetWarning,0828.8,5.00,000.00,030.0,027.6,000.0,038.9,031.3,013.9,0000.0,0012.24,0003.21,0002.17
2024-06-01 02:23:00,SystemResetWarning,0828.8,5.01,000.00,030.0,028.0,000.0,038.8,031.5,013.9,0000.0,0011.54,0002.81,0001.76
2024-06-01 02:24:00,SystemResetWarning,0828.8,5.00,000.00,030.0,028.3,000.0,038.7,031.6,014.0,0000.0,0011.45,0002.64,0001.60
2024-06-01 02:25:00,SystemResetWarning,0828.9,5.00,000.00,030.1,028.6,000.0,038.7,031.7,014.2,0000.0,0012.03,0002.61,0001.57
2024-06-01 02:26:00,SystemResetWarning,0828.8,5.00,000.00,030.1,028.8,000.0,038.7,031.8,014.1,0000.0,0009.83,0002.62,0001.59
2024-06-01 02:27:00,SystemResetWarning,0828.8,5.00,000.00,030.1,029.0,000.0,038.6,031.9,014.3,0000.0,0008.63,0002.56,0001.58
2024-06-01 02:28:00,SystemResetWarning,0828.8,4.99,000.00,030.2,029.2,000.0,038.6,032.0,014.1,0000.0,0008.53,0002.60,0001.60
2024-06-01 02:29:00,SystemResetWarning,0828.7,5.00,000.00,030.2,029.3,000.0,038.6,032.0,014.0,0000.0,0008.11,0002.66,0001.60
2024-06-01 02:30:00,SystemResetWarning,0828.7,5.00,000.00,030.2,029.4,000.0,038.6,032.1,014.1,0000.0,0007.33,0002.66,0001.59
2024-06-01 02:31:00,SystemResetWarning,0828.7,5.01,000.00,030.3,029.5,000.0,038.6,032.1,014.1,0000.0,0006.99,0002.60,0001.59
2024-06-01 02:32:00,SystemResetWarning,0828.7,5.01,000.00,030.3,029.6,000.0,038.6,032.1,014.1,0000.0,0007.53,0002.53,0001.60
2024-06-01 02:33:00,SystemResetWarning,0828.6,5.00,000.00,030.4,029.7,000.0,038.7,032.2,014.1,0000.0,0007.80,0002.56,0001.61
2024-06-01 02:34:00,SystemResetWarning,0828.6,4.99,000.00,030.4,029.7,000.0,038.7,032.2,014.1,0000.0,0008.22,0002.59,0001.61
2024-06-01 02:35:00,SystemResetWarning,0828.6,4.98,000.00,030.4,029.8,000.0,038.7,032.2,014.0,0000.0,0008.14,0002.57,0001.60
2024-06-01 02:36:00,SystemResetWarning,0828.6,5.00,000.00,030.4,029.8,000.0,038.7,032.3,014.0,0000.0,0008.31,0002.57,0001.60
2024-06-01 02:37:00,SystemResetWarning,0828.6,5.00,000.00,030.5,029.8,000.0,038.7,032.3,014.0,0000.0,0008.37,0002.55,0001.59
2024-06-01 02:38:00,SystemResetWarning,0828.6,5.01,000.00,030.5,029.9,000.0,038.7,032.3,014.0,0000.0,0008.37,0002.56,0001.60
2024-06-01 02:39:00,SystemResetWarning,0828.6,5.00,000.00,030.5,029.9,000.0,038.7,032.3,014.0,0000.0,0008.29,0002.54,0001.59
2024-06-01 02:40:00,SystemResetWarning,0828.6,5.01,000.00,030.6,029.9,000.0,038.7,032.3,014.1,0000.0,0008.24,0002.50,0001.59
2024-06-01 02:41:00,SystemResetWarning,0828.6,5.00,000.00,030.6,030.0,000.0,038.8,032.4,014.0,0000.0,0008.78,0002.46,0001.60
2024-06-01 02:42:00,SystemResetWarning,0828.5,4.99,000.00,030.6,030.0,000.0,038.8,032.4,013.9,0000.0,0009.03,0002.47,0001.60
2024-06-01 02:43:00,SystemResetWarning,0828.5,5.00,000.00,030.6,030.0,000.0,038.8,032.4,013.8,0000.0,0009.07,0002.41,0001.61
2024-06-01 02:44:00,SystemResetWarning,0828.6,4.99,000.00,030.6,030.0,000.0,038.8,032.4,013.9,0000.0,0009.39,0002.33,0001.58
2024-06-01 02:45:00,SystemResetWarning,0828.5,4.99,000.00,030.7,030.0,000.0,038.9,032.5,013.8,0000.0,0009.00,0002.29,0001.59
2024-06-01 02:46:00,SystemResetWarning,0828.5,5.00,000.00,030.7,030.0,000.0,038.9,032.5,013.7,0000.0,0009.22,0002.24,0001.60
2024-06-01 02:47:00,SystemResetWarning,0828.5,5.01,000.00,030.7,030.0,000.0,038.9,032.5,013.7,0000.0,0008.66,0002.20,0001.60
2024-06-01 02:48:00,SystemResetWarning,0828.5,5.01,000.00,030.7,030.0,000.0,038.9,032.5,013.6,0000.0,0009.16,0002.22,0001.60
2024-06-01 02:49:00,SystemResetWarning,0828.6,5.00,000.00,030.7,030.1,000.0,038.9,032.5,013.5,0000.0,0009.56,0002.27,0001.60
2024-06-01 02:50:00,SystemResetWarning,0828.4,4.99,000.00,030.7,030.1,000.0,038.9,032.5,013.5,0000.0,0010.15,0002.22,0001.60
2024-06-01 02:51:00,SystemResetWarning,0828.4,5.00,000.00,030.7,030.1,000.0,039.0,032.5,013.4,0000.0,0010.59,0002.21,0001.60
2024-06-01 02:52:00,SystemResetWarning,0828.4,5.00,000.00,030.8,030.1,000.0,039.0,032.5,013.4,0000.0,0010.17,0002.21,0001.60
2024-06-01 02:53:00,SystemResetWarning,0828.5,5.01,000.00,030.8,030.1,000.0,039.0,032.5,013.3,0000.0,0010.47,0002.22,0001.59
2024-06-01 02:54:00,SystemResetWarning,0828.5,5.01,000.00,030.8,030.1,000.0,039.0,032.5,013.3,0000.0,0010.08,0002.24,0001.58
2024-06-01 02:55:00,SystemResetWarning,0828.5,4.99,000.00,030.8,030.1,000.0,039.0,032.6,013.4,0000.0,0010.10,0002.30,0001.59
2024-06-01 02:56:00,SystemResetWarning,0828.5,5.00,000.00,030.8,030.1,000.0,039.0,032.6,013.4,0000.0,0010.03,0002.29,0001.57
2024-06-01 02:57:00,SystemResetWarning,0828.5,5.00,000.00,030.8,030.1,000.0,039.1,032.6,013.4,0000.0,0009.49,0002.27,0001.56
2024-06-01 02:58:00,SystemResetWarning,0828.4,4.99,000.00,030.8,030.1,000.0,039.1,032.6,013.5,0000.0,0009.31,0002.28,0001.56
2024-06-01 02:59:00,SystemResetWarning,0828.4,4.99,000.00,030.8,030.1,000.0,039.1,032.6,013.4,0000.0,0009.21,0002.31,0001.55
